Regional Weather Roundup
Issued by NWS

Home | Current Version | Previous Version | Text Only | Print | Product List | Glossary On
Versions: 1 2 3 4 5 6 7 8 9 10 11 12 13 14 15 16 17 18 19 20 21 22 23 24 25 26 27 28 29 30 31 32 33 34 35 36 37 38 39 40 41 42 43 44 45 46 47 48 49 50
000
ASUS43 KMPX 171410
RWRMN
WEATHER ROUNDUP FOR MINNESOTA
NATIONAL WEATHER SERVICE TWIN CITIES/CHANHASSEN MN
900 AM CDT WED SEP 17 2014


NOTE: "FAIR" INDICATES FEW OR NO CLOUDS BELOW 12,000 FEET WITH NO
SIGNIFICANT WEATHER AND/OR OBSTRUCTIONS TO VISIBILITY. N/A MEANS
CURRENT SKY AND/OR WEATHER CONDITIONS ARE NOT AVAILABLE.

MNZ060>063-068>070-171500-
   Twin Cities Metro

CITY           SKY/WX    TMP DP  RH WIND       PRES   REMARKS
TWIN CITIES    MOSUNNY   59  49  69 S8        29.95F
ST PAUL        MOSUNNY   57  50  77 SE6       29.96F
CRYSTAL        MOSUNNY   60  49  66 S6        29.94S
BLAINE         MOSUNNY   61  52  72 S5        29.95S
LAKEVILLE      CLOUDY    55  50  82 S3        29.95S
EDEN PRAIRIE   SUNNY     59  51  75 S5        29.94S
SOUTH ST PAUL  CLOUDY    57  50  76 CALM      29.95F
LAKE ELMO      CLOUDY    55  52  88 S3        29.97S
$$
MNZ001>005-007-008-013>017-022>024-027-028-171500-
   Northwest Minnesota

CITY           SKY/WX    TMP DP  RH WIND       PRES   REMARKS
BEMIDJI        SUNNY     51  46  82 CALM      29.94F
HALLOCK        PTSUNNY   50  46  87 N10G16    29.98R
ROSEAU         CLOUDY    50  45  81 NE13      29.98R
WARROAD        CLOUDY    48  45  87 NE10      29.99R
THIEF RVR FALL SUNNY     52  45  76 CALM      29.95R
CROOKSTON      SUNNY     50  46  87 NW8       29.95R
FOSSTON        SUNNY     54  48  82 CALM      29.95F
DETROIT LAKES  SUNNY     52  48  87 CALM      29.94S
MOORHEAD       SUNNY     52  52 100 N5        29.95R
PARK RAPIDS    SUNNY     51  45  79 CALM      29.94R
MAHNOMEN       FAIR      52  49  89 CALM      29.94S
$$
MNZ006-009>011-018-025>026-171500-
   North Central Minnesota

CITY           SKY/WX    TMP DP  RH WIND       PRES   REMARKS
BAUDETTE       CLOUDY    49  46  90 NE13      29.97R
FLAG ISLAND    CLOUDY    45  39  81 NE8       30.00R
INTL FALLS     CLOUDY    49  45  86 NE13      29.96R
WASKISH        PTSUNNY   48  48 100 CALM      29.94R
BIG FORK       MOSUNNY   48  46  93 S2        29.93S
LONGVILLE      SUNNY     50  48  93 CALM      29.94R
GRAND RAPIDS   SUNNY     52  45  76 CALM      29.95S
CRANE LAKE     CLOUDY    48  46  93 N5        29.96R
ORR            PTSUNNY   52  45  76 CALM      29.91R
COOK           PTSUNNY   48  45  87 CALM      29.93R
WALKER         FAIR      52  46  80 NW3       29.95R
$$
MNZ012-019>021-037-171500-
   Northeast Minnesota

CITY           SKY/WX    TMP DP  RH WIND       PRES   REMARKS
DULUTH         MOSUNNY   56  45  66 N8G21     29.94R
ELY            PTSUNNY   50  46  87 CALM      29.92R
HIBBING        SUNNY     51  44  77 CALM      29.93F
EVELETH        MOSUNNY   52  45  76 CALM      29.93F
DULUTH HARBOR  SUNNY     54  46  76 S6        29.94S
TWO HARBORS    SUNNY     52  45  76 SE3       29.92S
SILVER BAY     SUNNY     52  48  87 CALM      29.90F
GRAND MARAIS     N/A     47  43  86 E15G21    29.96R
G MARAIS ARPRT DRIZZLE   43  39  87 CALM      29.94R
$$
MNZ029>031-032-039>041-046>048-054>057-064-171500-
   West Central Minnesota

CITY           SKY/WX    TMP DP  RH WIND       PRES   REMARKS
FERGUS FALLS   SUNNY     54  50  87 CALM      29.93S
WHEATON        SUNNY     50  48  93 CALM      29.95S
MORRIS         SUNNY     55  52  88 CALM      29.93R
ALEXANDRIA     SUNNY     56  50  80 SW5       29.95R
ELBOW LAKE     FAIR      54  50  88 S3        29.93R
WADENA         SUNNY     48  46  93 CALM      29.93S
GLENWOOD       SUNNY     55  52  88 SW3       29.94S
APPLETON       SUNNY     55  52  88 CALM      29.92S
BENSON         SUNNY     55  52  88 CALM      29.93S
ORTONVILLE     SUNNY     55  50  82 CALM      29.93R
MADISON        SUNNY     57  54  88 CALM      29.92S
WILLMAR        FAIR      57  52  82 CALM      29.95S
$$
MNZ033>034-036-042>043-049>051-058-059-171500-
   Central Minnesota

CITY           SKY/WX    TMP DP  RH WIND       PRES   REMARKS
ST CLOUD       SUNNY     57  51  80 CALM      29.94S
SAUK CENTRE    FAIR      52  50  92 CALM      29.94S
PAYNESVILLE    MOSUNNY   54  50  86 CALM      29.94S
AITKIN         SUNNY     55  48  76 CALM      29.92S
PINE RIVER     SUNNY     48  45  87 CALM      29.97S
BRAINERD       SUNNY     51  48  89 SW3       29.94S
STAPLES        SUNNY     50  46  87 CALM      29.94R
LONG PRAIRIE   FAIR      54  50  87 CALM      29.94S
LITTLE FALLS   SUNNY     52  48  87 CALM      29.94S
LITCHFIELD     SUNNY     59  54  82 CALM      29.94S
BUFFALO        MOSUNNY   57  49  74 S5        29.96R
MAPLE LAKE     SUNNY     59  53  81 CALM      29.95S
$$
MNZ037-044-045-052-053-171500-
   East Central Minnesota

CITY           SKY/WX    TMP DP  RH WIND       PRES   REMARKS
PRINCETON      MOSUNNY   54  54 100 CALM      29.94F
MORA           SUNNY     48  48 100 CALM      29.96S
CAMBRIDGE      SUNNY     59  48  67 S5        29.93S
RUSH CITY      SUNNY     53  50  90 CALM      29.95S
MOOSE LAKE     SUNNY     46  45  93 CALM      29.93R
HINCKLEY       FAIR      50  50 100 CALM      29.95S
CLOQUET        SUNNY     55  46  71 W6        29.93S
MCGREGOR       SUNNY     50  48  93 CALM      29.94S
$$
MNZ071>073-080-081-089-090-097-098-171500-
   Southwest Minnesota

CITY           SKY/WX    TMP DP  RH WIND       PRES   REMARKS
MONTEVIDEO     SUNNY     61  55  82 CALM      29.93S
GRANITE FALLS  SUNNY     55  52  88 CALM      29.94S
CANBY          SUNNY     57  52  81 CALM      29.94R
MARSHALL       SUNNY     57  48  72 CALM      29.92S
REDWOOD FALLS  SUNNY     57  51  80 S5        29.93S
OLIVIA         SUNNY     57  52  82 S3        29.93S
PIPESTONE      SUNNY     55  52  88 CALM      29.93S
WINDOM         MOSUNNY   55  50  82 S3        29.94S
WORTHINGTON    SUNNY     55  50  82 S3        29.95S
JACKSON        MOSUNNY   55  48  76 S6        29.96R
TRACY          SUNNY     58  52  80 CALM      29.94R
SLAYTON        SUNNY     55  51  86 CALM      29.94S
$$
MNZ065>067-074>077-082>085-091>093-171500-
   South Central Minnesota

CITY           SKY/WX    TMP DP  RH WIND       PRES   REMARKS
MANKATO        SUNNY     55  46  71 S7        29.95S
NEW ULM        SUNNY     55  54  94 S3        29.94S
ST JAMES       MOSUNNY   59  52  77 S7        29.95S
FAIRMONT       MOSUNNY   54  46  76 S5        29.95S
GLENCOE        SUNNY     58  49  72 S3        29.94S
FARIBAULT      SUNNY     61  46  59 S6        29.96S
OWATONNA       MOSUNNY   57  48  72 S3        29.97S
WASECA         MOSUNNY   55  45  67 S7        29.98S
ALBERT LEA     MOSUNNY   55  50  82 S3        29.97S
$$
MNZ078>079-086>088-094>096-171500-
   Southeast Minnesota

CITY           SKY/WX    TMP DP  RH WIND       PRES   REMARKS
ROCHESTER      CLOUDY    54  49  83 S7        29.99S
RED WING       PTSUNNY   57  48  72 CALM      29.96S
STANTON        CLOUDY    57  49  74 S5        29.95S
DODGE CENTER   MOSUNNY   57  50  77 SW7       29.98R
WINONA         PTSUNNY   54  52  94 SE5       29.99F
AUSTIN         PTSUNNY   52  48  87 CALM      29.98S
PRESTON        PTSUNNY   52  51  95 S5        30.00S
$$
ABBREVIATIONS USED IN REMARKS
   TC - TEMPERATURES IN CELSIUS
  WCI - WIND CHILL INDEX
   HX - HEAT INDEX
  VSB - VISIBILITY
$$



USA.gov is the U.S. government's official web portal to all federal, state and local government web resources and services.